Location: Corralito
(10.2667°N, 66.9500°W)
Time: 19:26:24
(UTC+00:00)

Cosmos 2333 - Pass Details

Date: 23 March 2023
Orbit: 831 x 864 km, 70.9° (Epoch: 09 June)

Event Time Altitude Azimuth Distance (km) Brightness Sun altitude
Rises 23:46:52 0° 352° (N) 3,429 7.5 -17.6°
Reaches altitude 10° 23:49:23 10° 357° (N) 2,490 6.7 -18.2°
Maximum altitude 23:54:58 54° 73° (ENE) 1,034 4.3 -19.6°
Enters shadow 23:57:48 28° 137° (SE) 1,551 5.2 -20.3°
